| time (UTC) | temp F | wind direction | speed MPH | gust MPH | rain 1hr in | rain 24hr in | rain mn in | humidity % | barometer mb |
| 20260505124612 | 55 | 219 | 17.0 | 26.0 | 0.00 | 0.02 | 0.00 | 72 | 1009.0 |
| 20260505123110 | 55 | 204 | 14.0 | 23.0 | 0.00 | 0.02 | 0.00 | 74 | 1009.1 |
| 20260505121559 | 54 | 209 | 14.0 | 22.0 | 0.00 | 0.02 | 0.00 | 74 | 1009.1 |
| 20260505120121 | 54 | 179 | 10.0 | 20.0 | 0.00 | 0.02 | 0.00 | 74 | 1009.1 |
| 20260505114601 | 53 | 214 | 9.0 | 17.0 | 0.00 | 0.02 | 0.00 | 75 | 1009.1 |
| 20260505113107 | 52 | 190 | 7.0 | 13.0 | 0.00 | 0.02 | 0.00 | 77 | 1009.1 |
| 20260505111600 | 51 | 188 | 9.0 | 17.0 | 0.00 | 0.02 | 0.00 | 79 | 1008.9 |
| 20260505110120 | 49 | 233 | 9.0 | 13.0 | 0.00 | 0.02 | 0.00 | 81 | 1008.9 |
| 20260505101603 | 47 | 188 | 9.0 | 15.0 | 0.00 | 0.02 | 0.00 | 84 | 1008.9 |
| 20260505100101 | 47 | 203 | 9.0 | 15.0 | 0.00 | 0.02 | 0.00 | 84 | 1008.8 |
| 20260505094600 | 47 | 225 | 10.0 | 18.0 | 0.00 | 0.02 | 0.00 | 83 | 1008.7 |
| 20260505093108 | 47 | 200 | 13.0 | 19.0 | 0.00 | 0.02 | 0.00 | 83 | 1008.5 |
| 20260505091600 | 47 | 235 | 11.0 | 19.0 | 0.00 | 0.02 | 0.00 | 82 | 1008.4 |
| 20260505090059 | 47 | 214 | 10.0 | 17.0 | 0.00 | 0.02 | 0.00 | 81 | 1008.5 |
| 20260505084558 | 48 | 215 | 11.0 | 20.0 | 0.00 | 0.02 | 0.00 | 80 | 1008.5 |
| 20260505083059 | 48 | 210 | 13.0 | 21.0 | 0.00 | 0.02 | 0.00 | 79 | 1008.4 |
| 20260505081620 | 48 | 217 | 13.0 | 23.0 | 0.00 | 0.02 | 0.00 | 79 | 1008.3 |
| 20260505080112 | 48 | 210 | 12.0 | 21.0 | 0.00 | 0.02 | 0.00 | 79 | 1008.3 |
| 20260505074559 | 48 | 200 | 11.0 | 19.0 | 0.00 | 0.02 | 0.00 | 79 | 1008.2 |
| 20260505073058 | 48 | 207 | 11.0 | 18.0 | 0.00 | 0.02 | 0.00 | 79 | 1008.3 |
| 20260505071617 | 48 | 215 | 13.0 | 19.0 | 0.00 | 0.02 | 0.00 | 79 | 1008.4 |
| 20260505070112 | 48 | 212 | 11.0 | 17.0 | 0.00 | 0.02 | 0.00 | 79 | 1008.3 |
| 20260505064604 | 48 | 213 | 10.0 | 18.0 | 0.00 | 0.02 | 0.00 | 78 | 1008.4 |
| 20260505063101 | 48 | 204 | 11.0 | 19.0 | 0.00 | 0.02 | 0.00 | 78 | 1008.3 |
| 20260505061602 | 49 | 209 | 11.0 | 20.0 | 0.00 | 0.02 | 0.00 | 78 | 1008.2 |
| 20260505060103 | 49 | 224 | 11.0 | 24.0 | 0.00 | 0.02 | 0.00 | 77 | 1008.3 |
| 20260505054559 | 49 | 221 | 13.0 | 23.0 | 0.00 | 0.02 | 0.00 | 77 | 1008.2 |
| 20260505053105 | 49 | 222 | 12.0 | 20.0 | 0.00 | 0.02 | 0.00 | 78 | 1008.1 |
| 20260505051600 | 49 | 195 | 11.0 | 21.0 | 0.00 | 0.02 | 0.00 | 77 | 1007.8 |
| 20260505041600 | 48 | 201 | 8.0 | 14.0 | 0.00 | 0.02 | 0.00 | 78 | 1007.7 |
| 20260505040110 | 48 | 214 | 6.0 | 16.0 | 0.00 | 0.02 | 0.00 | 78 | 1007.8 |
| 20260505034600 | 48 | 206 | 10.0 | 16.0 | 0.00 | 0.02 | 0.02 | 79 | 1007.7 |
| 20260505033101 | 48 | 220 | 7.0 | 12.0 | 0.00 | 0.02 | 0.02 | 79 | 1007.7 |
| 20260505031601 | 48 | 208 | 7.0 | 11.0 | 0.00 | 0.02 | 0.02 | 78 | 1007.6 |
| 20260505030104 | 48 | 222 | 7.0 | 16.0 | 0.00 | 0.02 | 0.02 | 78 | 1007.7 |
| 20260505024558 | 48 | 200 | 10.0 | 16.0 | 0.00 | 0.02 | 0.02 | 77 | 1007.8 |
| 20260505023109 | 48 | 196 | 8.0 | 13.0 | 0.00 | 0.02 | 0.02 | 77 | 1007.7 |
| 20260505021602 | 48 | 215 | 8.0 | 14.0 | 0.00 | 0.02 | 0.02 | 77 | 1007.7 |
| 20260505020105 | 48 | 188 | 7.0 | 14.0 | 0.00 | 0.02 | 0.02 | 76 | 1007.7 |
| 20260505014600 | 48 | 219 | 9.0 | 16.0 | 0.00 | 0.02 | 0.02 | 76 | 1007.6 |
| 20260505013101 | 48 | 206 | 8.0 | 13.0 | 0.00 | 0.02 | 0.02 | 76 | 1007.5 |
| 20260505011559 | 48 | 200 | 7.0 | 13.0 | 0.00 | 0.02 | 0.02 | 76 | 1007.5 |
| 20260505010104 | 48 | 202 | 8.0 | 12.0 | 0.00 | 0.02 | 0.02 | 75 | 1007.4 |
| 20260505004559 | 49 | 213 | 7.0 | 13.0 | 0.00 | 0.02 | 0.02 | 74 | 1007.3 |
| 20260505003105 | 49 | 175 | 7.0 | 11.0 | 0.00 | 0.02 | 0.02 | 74 | 1007.1 |
| 20260505001559 | 50 | 163 | 8.0 | 11.0 | 0.00 | 0.02 | 0.02 | 73 | 1006.9 |
| 20260505000112 | 52 | 135 | 5.0 | 9.0 | 0.00 | 0.02 | 0.02 | 71 | 1006.7 |
| 20260504234559 | 54 | 146 | 5.0 | 8.0 | 0.00 | 0.02 | 0.02 | 69 | 1006.5 |
| 20260504233106 | 55 | 168 | 5.0 | 11.0 | 0.00 | 0.02 | 0.02 | 65 | 1006.1 |
| 20260504231558 | 56 | 195 | 5.0 | 9.0 | 0.00 | 0.02 | 0.02 | 63 | 1006.1 |
| 20260504230059 | 58 | 167 | 4.0 | 8.0 | 0.00 | 0.02 | 0.02 | 60 | 1006.0 |
| 20260504224602 | 59 | 179 | 3.0 | 8.0 | 0.00 | 0.02 | 0.02 | 59 | 1005.8 |
| 20260504223058 | 59 | 204 | 5.0 | 9.0 | 0.00 | 0.02 | 0.02 | 58 | 1005.8 |
| 20260504221600 | 60 | 225 | 5.0 | 9.0 | 0.00 | 0.02 | 0.02 | 58 | 1005.8 |
| 20260504220123 | 60 | 240 | 7.0 | 12.0 | 0.00 | 0.02 | 0.02 | 57 | 1005.7 |
| 20260504214600 | 60 | 229 | 7.0 | 14.0 | 0.00 | 0.02 | 0.02 | 57 | 1005.6 |
| 20260504213102 | 61 | 200 | 6.0 | 13.0 | 0.00 | 0.02 | 0.02 | 57 | 1005.4 |
| 20260504211600 | 61 | 208 | 9.0 | 14.0 | 0.00 | 0.02 | 0.02 | 56 | 1005.5 |
| 20260504210059 | 62 | 180 | 7.0 | 14.0 | 0.00 | 0.02 | 0.02 | 57 | 1005.3 |
| 20260504204559 | 62 | 226 | 7.0 | 12.0 | 0.00 | 0.02 | 0.02 | 57 | 1005.3 |
| 20260504203057 | 61 | 222 | 9.0 | 12.0 | 0.00 | 0.02 | 0.02 | 60 | 1005.2 |
| 20260504201559 | 60 | 209 | 9.0 | 18.0 | 0.00 | 0.02 | 0.02 | 59 | 1005.1 |
| 20260504194559 | 59 | 227 | 9.0 | 17.0 | 0.00 | 0.04 | 0.02 | 64 | 1005.0 |
| 20260504193059 | 58 | 273 | 10.0 | 15.0 | 0.00 | 0.04 | 0.02 | 69 | 1005.2 |
| 20260504191600 | 56 | 196 | 9.0 | 14.0 | 0.01 | 0.04 | 0.02 | 78 | 1005.3 |
| 20260504190110 | 51 | 204 | 8.0 | 12.0 | 0.02 | 0.04 | 0.02 | 86 | 1005.7 |
| 20260504184616 | 49 | 229 | 7.0 | 14.0 | 0.02 | 0.08 | 0.02 | 83 | 1005.9 |
| 20260504183107 | 49 | 246 | 11.0 | 16.0 | 0.02 | 0.08 | 0.02 | 79 | 1006.1 |
| 20260504181558 | 51 | 217 | 9.0 | 15.0 | 0.01 | 0.07 | 0.01 | 76 | 1006.0 |
| 20260504174610 | 52 | 224 | 12.0 | 24.0 | 0.00 | 0.13 | 0.00 | 63 | 1005.4 |
| 20260504173104 | 51 | 190 | 11.0 | 20.0 | 0.00 | 0.13 | 0.00 | 63 | 1005.4 |
| 20260504171600 | 52 | 221 | 14.0 | 24.0 | 0.00 | 0.13 | 0.00 | 61 | 1005.4 |
| 20260504170109 | 56 | 222 | 13.0 | 21.0 | 0.00 | 0.13 | 0.00 | 60 | 1005.1 |
| 20260504150103 | 56 | 197 | 8.0 | 15.0 | 0.00 | 0.32 | 0.00 | 51 | 1006.2 |